| time (UTC) | temp C | wind direction | speed KPH | gust KPH | rain 1hr cm | rain 24hr cm | rain mn cm | humidity % | barometer mb |
| 20260505121941 | 15 | 40 | 1.6 | 3.2 | 0.00 | 0.00 | 0.00 | 70 | 1027.5 |
| 20260505120938 | 15 | 42 | 1.6 | 6.4 | 0.00 | 0.00 | 0.00 | 70 | 1027.5 |
| 20260505115937 | 15 | 45 | 1.6 | 4.8 | 0.00 | 0.00 | 0.00 | 69 | 1027.5 |
| 20260505114935 | 15 | 38 | 1.6 | 4.8 | 0.00 | 0.00 | 0.00 | 69 | 1027.5 |
| 20260505112533 | 15 | 40 | 1.6 | 3.2 | 0.00 | 0.00 | 0.00 | 70 | 1027.5 |
| 20260505111531 | 15 | 40 | 1.6 | 3.2 | 0.00 | 0.00 | 0.00 | 70 | 1027.5 |
| 20260505110529 | 15 | 42 | 1.6 | 3.2 | 0.00 | 0.00 | 0.00 | 70 | 1027.4 |
| 20260505100517 | 16 | 22 | 1.6 | 6.4 | 0.00 | 0.00 | 0.00 | 70 | 1027.3 |
| 20260505094515 | 16 | 29 | 1.6 | 3.2 | 0.00 | 0.00 | 0.00 | 70 | 1027.4 |
| 20260505093512 | 15 | 25 | 1.6 | 4.8 | 0.00 | 0.00 | 0.00 | 70 | 1027.4 |
| 20260505092509 | 15 | 24 | 3.2 | 4.8 | 0.00 | 0.00 | 0.00 | 70 | 1027.4 |
| 20260505091507 | 15 | 25 | 3.2 | 3.2 | 0.00 | 0.00 | 0.00 | 70 | 1027.4 |
| 20260505090506 | 15 | 24 | 3.2 | 4.8 | 0.00 | 0.00 | 0.00 | 70 | 1027.2 |
| 20260505085504 | 15 | 31 | 1.6 | 4.8 | 0.00 | 0.00 | 0.00 | 70 | 1027.1 |
| 20260505083459 | 15 | 30 | 1.6 | 4.8 | 0.00 | 0.00 | 0.00 | 70 | 1027.0 |
| 20260505082458 | 15 | 33 | 1.6 | 3.2 | 0.00 | 0.00 | 0.00 | 70 | 1027.0 |
| 20260505081454 | 15 | 30 | 1.6 | 4.8 | 0.00 | 0.00 | 0.00 | 70 | 1026.9 |
| 20260505080454 | 15 | 33 | 1.6 | 4.8 | 0.00 | 0.00 | 0.00 | 70 | 1026.8 |
| 20260505075451 | 15 | 37 | 1.6 | 4.8 | 0.00 | 0.00 | 0.00 | 70 | 1026.6 |
| 20260505073447 | 15 | 36 | 1.6 | 4.8 | 0.00 | 0.00 | 0.00 | 70 | 1026.5 |
| 20260505072409 | 15 | 40 | 1.6 | 3.2 | 0.00 | 0.00 | 0.00 | 70 | 1026.5 |
| 20260505071405 | 15 | 42 | 1.6 | 3.2 | 0.00 | 0.00 | 0.00 | 69 | 1026.3 |
| 20260505070404 | 16 | 40 | 1.6 | 4.8 | 0.00 | 0.00 | 0.00 | 69 | 1026.3 |
| 20260505065404 | 16 | 40 | 1.6 | 3.2 | 0.00 | 0.00 | 0.00 | 69 | 1026.3 |
| 20260505064401 | 16 | 42 | 1.6 | 3.2 | 0.00 | 0.00 | 0.00 | 69 | 1026.2 |
| 20260505062357 | 16 | 42 | 1.6 | 3.2 | 0.00 | 0.00 | 0.00 | 68 | 1026.0 |
| 20260505061354 | 16 | 39 | 1.6 | 3.2 | 0.00 | 0.00 | 0.00 | 68 | 1026.1 |
| 20260505060353 | 16 | 40 | 1.6 | 4.8 | 0.00 | 0.00 | 0.00 | 68 | 1026.0 |
| 20260505055351 | 16 | 37 | 1.6 | 3.2 | 0.00 | 0.00 | 0.00 | 68 | 1025.9 |
| 20260505054349 | 16 | 38 | 1.6 | 4.8 | 0.00 | 0.00 | 0.00 | 67 | 1025.8 |
| 20260505053344 | 16 | 37 | 1.6 | 3.2 | 0.00 | 0.00 | 0.00 | 68 | 1025.6 |
| 20260505052343 | 16 | 45 | 1.6 | 3.2 | 0.00 | 0.00 | 0.00 | 68 | 1025.5 |
| 20260505051342 | 16 | 38 | 1.6 | 3.2 | 0.00 | 0.00 | 0.00 | 68 | 1025.6 |
| 20260505050340 | 16 | 39 | 1.6 | 3.2 | 0.00 | 0.00 | 0.00 | 68 | 1025.6 |
| 20260505041329 | 16 | 61 | 1.6 | 3.2 | 0.00 | 0.00 | 0.00 | 68 | 1025.1 |
| 20260505040328 | 16 | 63 | 1.6 | 3.2 | 0.00 | 0.00 | 0.00 | 69 | 1025.0 |
| 20260505035326 | 17 | 60 | 1.6 | 3.2 | 0.00 | 0.00 | 0.00 | 69 | 1025.1 |
| 20260505034323 | 17 | 53 | 1.6 | 3.2 | 0.00 | 0.00 | 0.00 | 70 | 1025.0 |
| 20260505033323 | 17 | 56 | 1.6 | 3.2 | 0.00 | 0.00 | 0.00 | 70 | 1025.0 |
| 20260505032320 | 16 | 23 | 1.6 | 6.4 | 0.00 | 0.00 | 0.00 | 70 | 1025.0 |
| 20260505031319 | 16 | 45 | 1.6 | 3.2 | 0.00 | 0.00 | 0.00 | 71 | 1025.3 |
| 20260505030316 | 16 | 40 | 1.6 | 4.8 | 0.00 | 0.00 | 0.00 | 71 | 1025.2 |
| 20260505025313 | 16 | 45 | 1.6 | 3.2 | 0.00 | 0.00 | 0.00 | 71 | 1025.2 |
| 20260505023311 | 16 | 36 | 1.6 | 3.2 | 0.00 | 0.00 | 0.00 | 72 | 1025.3 |
| 20260505022307 | 16 | 25 | 1.6 | 3.2 | 0.00 | 0.00 | 0.00 | 72 | 1025.4 |
| 20260505021305 | 16 | 27 | 1.6 | 3.2 | 0.00 | 0.00 | 0.00 | 72 | 1025.3 |
| 20260505020303 | 16 | 30 | 1.6 | 4.8 | 0.00 | 0.00 | 0.00 | 73 | 1025.5 |
| 20260505015303 | 16 | 34 | 1.6 | 6.4 | 0.00 | 0.00 | 0.00 | 73 | 1025.6 |
| 20260505014300 | 15 | 37 | 1.6 | 4.8 | 0.00 | 0.00 | 0.00 | 74 | 1025.4 |
| 20260505013258 | 15 | 45 | 1.6 | 4.8 | 0.00 | 0.00 | 0.00 | 74 | 1025.7 |
| 20260505010252 | 15 | 45 | 1.6 | 6.4 | 0.00 | 0.00 | 0.00 | 75 | 1025.5 |
| 20260505005250 | 15 | 41 | 1.6 | 4.8 | 0.00 | 0.00 | 0.00 | 75 | 1025.4 |
| 20260505004249 | 15 | 62 | 1.6 | 6.4 | 0.00 | 0.00 | 0.00 | 76 | 1025.4 |
| 20260505003247 | 15 | 37 | 1.6 | 3.2 | 0.00 | 0.00 | 0.00 | 76 | 1025.1 |
| 20260505002243 | 15 | 45 | 1.6 | 8.0 | 0.00 | 0.00 | 0.00 | 76 | 1024.9 |
| 20260505001242 | 15 | 48 | 1.6 | 4.8 | 0.00 | 0.00 | 0.00 | 77 | 1024.9 |
| 20260505000240 | 15 | 45 | 1.6 | 6.4 | 0.00 | 0.00 | 0.00 | 77 | 1024.8 |
| 20260504235237 | 14 | 49 | 1.6 | 6.4 | 0.00 | 0.00 | 0.00 | 78 | 1024.7 |
| 20260504234237 | 14 | 32 | 1.6 | 3.2 | 0.00 | 0.00 | 0.00 | 78 | 1024.7 |
| 20260504233233 | 14 | 45 | 1.6 | 6.4 | 0.00 | 0.00 | 0.00 | 78 | 1024.7 |
| 20260504232233 | 14 | 52 | 1.6 | 8.0 | 0.00 | 0.00 | 0.00 | 78 | 1024.5 |
| 20260504231230 | 14 | 26 | 1.6 | 4.8 | 0.00 | 0.00 | 0.00 | 78 | 1024.2 |
| 20260504230228 | 14 | 30 | 1.6 | 9.7 | 0.00 | 0.00 | 0.00 | 78 | 1024.4 |
| 20260504225225 | 14 | 35 | 1.6 | 4.8 | 0.00 | 0.00 | 0.00 | 79 | 1024.2 |
| 20260504223222 | 13 | 38 | 1.6 | 6.4 | 0.00 | 0.00 | 0.00 | 79 | 1023.9 |
| 20260504222219 | 13 | 30 | 1.6 | 4.8 | 0.00 | 0.00 | 0.00 | 79 | 1023.6 |
| 20260504221217 | 13 | 34 | 1.6 | 4.8 | 0.00 | 0.00 | 0.00 | 79 | 1023.3 |
| 20260504220217 | 13 | 27 | 1.6 | 6.4 | 0.00 | 0.00 | 0.00 | 79 | 1023.2 |
| 20260504215214 | 13 | 32 | 1.6 | 4.8 | 0.00 | 0.00 | 0.00 | 79 | 1023.0 |
| 20260504214213 | 13 | 41 | 1.6 | 4.8 | 0.00 | 0.00 | 0.00 | 79 | 1022.7 |
| 20260504213211 | 13 | 41 | 1.6 | 8.0 | 0.00 | 0.00 | 0.00 | 79 | 1022.6 |
| 20260504212207 | 13 | 38 | 1.6 | 6.4 | 0.00 | 0.00 | 0.00 | 79 | 1022.4 |
| 20260504211206 | 13 | 38 | 1.6 | 6.4 | 0.00 | 0.00 | 0.00 | 79 | 1022.2 |
| 20260504210204 | 13 | 28 | 1.6 | 6.4 | 0.00 | 0.00 | 0.00 | 79 | 1022.3 |
| 20260504205202 | 13 | 23 | 1.6 | 6.4 | 0.00 | 0.00 | 0.00 | 79 | 1022.3 |
| 20260504203159 | 13 | 38 | 1.6 | 11.3 | 0.00 | 0.00 | 0.00 | 79 | 1021.7 |
| 20260504200153 | 13 | 27 | 1.6 | 6.4 | 0.00 | 0.00 | 0.00 | 79 | 1021.3 |
| 20260504195150 | 13 | 39 | 1.6 | 6.4 | 0.00 | 0.00 | 0.00 | 78 | 1021.1 |
| 20260504194148 | 13 | 36 | 1.6 | 6.4 | 0.00 | 0.00 | 0.00 | 78 | 1021.1 |
| 20260504193146 | 13 | 33 | 1.6 | 4.8 | 0.00 | 0.00 | 0.00 | 78 | 1020.8 |
| 20260504192144 | 14 | 29 | 1.6 | 6.4 | 0.00 | 0.00 | 0.00 | 78 | 1020.8 |
| 20260504191141 | 14 | 35 | 1.6 | 4.8 | 0.00 | 0.00 | 0.00 | 78 | 1020.8 |
| 20260504184137 | 14 | 36 | 1.6 | 6.4 | 0.00 | 0.00 | 0.00 | 77 | 1020.2 |
| 20260504182131 | 14 | 41 | 1.6 | 6.4 | 0.00 | 0.00 | 0.00 | 76 | 1020.1 |
| 20260504181130 | 14 | 27 | 1.6 | 6.4 | 0.00 | 0.00 | 0.00 | 76 | 1019.9 |
| 20260504180129 | 14 | 36 | 1.6 | 9.7 | 0.00 | 0.00 | 0.00 | 76 | 1019.8 |
| 20260504174123 | 14 | 26 | 3.2 | 8.0 | 0.00 | 0.00 | 0.00 | 75 | 1019.7 |
| 20260504173122 | 14 | 41 | 1.6 | 6.4 | 0.00 | 0.00 | 0.00 | 75 | 1019.7 |
| 20260504172120 | 14 | 19 | 1.6 | 8.0 | 0.00 | 0.00 | 0.00 | 75 | 1019.6 |
| 20260504171117 | 14 | 33 | 1.6 | 6.4 | 0.00 | 0.00 | 0.00 | 75 | 1019.6 |
| 20260504160105 | 15 | 15 | 3.2 | 12.9 | 0.00 | 0.00 | 0.00 | 74 | 1019.1 |
| 20260504151053 | 15 | 14 | 3.2 | 11.3 | 0.00 | 0.00 | 0.00 | 73 | 1018.6 |
| 20260504141044 | 15 | 0 | 3.2 | 12.9 | 0.00 | 0.00 | 0.00 | 72 | 1018.0 |